Regional Weather Roundup
Issued by NWS

Home | Current Version | Previous Version | Text Only | Print | Product List | Glossary On
Versions: 1 2 3 4 5 6 7 8 9 10 11 12 13 14 15 16 17 18 19 20 21 22 23 24 25 26 27 28 29 30 31 32 33 34 35 36 37 38 39 40 41 42 43 44 45 46 47 48 49 50
000
ASUS43 KLOT 062308
RWRIL

ILLINOIS REGIONAL WEATHER ROUNDUP
NATIONAL WEATHER SERVICE CHICAGO/ROMEOVILLE IL
600 PM CDT FRI MAY 06 2016

NOTE: "FAIR" INDICATES FEW OR NO CLOUDS BELOW 12,000 FEET WITH NO
SIGNIFICANT WEATHER AND/OR OBSTRUCTIONS TO VISIBILITY.

* THESE STATIONS ARE NOT UNDER NWS QUALITY CONTROL. THEY ALSO MAY NOT
  REPORT WEATHER SUCH AS PRECIPITATION OR FOG.

ILZ001-002-007-009-015-016-024-070000-
NORTHWEST ILLINOIS

CITY           SKY/WX    TMP DP  RH WIND       PRES   REMARKS
MOLINE         SUNNY     84  45  25 W15G23    29.82F HX  82
STERLING*      SUNNY     82  52  34 W13       29.81F HX  81
SAVANNA*       SUNNY     85  45  24 W9        29.80F HX  82
$$

ILZ003-004-008-010-011-017-018-070000-
NORTH CENTRAL ILLINOIS

CITY           SKY/WX    TMP DP  RH WIND       PRES   REMARKS
ROCKFORD       SUNNY     83  52  34 W9        29.82F HX  82
FREEPORT*      SUNNY     82  49  31 W9G16     29.82F HX  80
ROCHELLE*      SUNNY     82  49  32 W15       29.82F HX  80
DE KALB*       SUNNY     81  49  33 NW16G23   29.82F HX  80
$$

ILZ005-006-012>014-019>023-070000-
NORTHEAST ILLINOIS

CITY           SKY/WX    TMP DP  RH WIND       PRES   REMARKS
CHICAGO-OHARE  MOSUNNY   82  46  28 W10G21    29.78F HX  80
CHICAGO-MIDWAY MOSUNNY   83  45  26 W12       29.79F HX  81
AURORA         SUNNY     82  48  30 W15       29.81F HX  81
LANSING*       MOSUNNY   79  48  34 SW10      29.81F
JOLIET*        SUNNY     84  44  24 W10       29.81F HX  82
WAUKEGAN       SUNNY     83  47  28 W8        29.77F HX  81
DUPAGE AIRPORT SUNNY     82  46  28 W10       29.79F HX  80
KANKAKEE*      MOSUNNY  N/A N/A N/A W12       29.82F
WHEELING       SUNNY     83  44  25 W12       29.79F HX  81
MORRIS*        SUNNY     83  43  24 W16G22    29.80F HX  80
ROMEOVILLE*    SUNNY     82  40  22 NW13      29.81F HX  80
NORTHERLY ISL    N/A     81  41  24 SW8         N/A
NORTHERLY ISL    N/A     81  41  24 SW8         N/A
$$

LMZ740>746-070000-
SOUTHERN LAKE MICHIGAN

STATION/POSITION SKY/WX   TEMP    WIND        PRES    VSBY  WAVE
                          AIR SEA DIR/SP/G                  HT/PER
                          (F)     (DEG/KT/KT) (MB)    (MI)  (FT/S)
SOUTHERN BUOY              50 41  140/ 12/ 14 1008.6F         1/ 3
WILMETTE HARBOR            50 45  150/  6/  8   N/A           1/ 2
HARRISON CRIB              75     210/  8/  9   N/A
BURNHAM HARBOR             81     270/  8/ 11   N/A
CALUMET HARBOR             79                 1008.8F
BURNS HARBOR               76     210/  7/ 11 1010.5F
MICHIGAN CITY              70      CALM  /  2   N/A
ST. JOSEPH                 64 32                N/A           0
$$

ILZ025>027-034>036-040-047-049-050-058-095>099-070000-
WEST-CENTRAL ILLINOIS

CITY           SKY/WX    TMP DP  RH WIND       PRES   REMARKS
QUINCY         SUNNY     80  47  31 W9        29.91F
GALESBURG*     SUNNY     82  48  30 W14       29.86F HX  81
MACOMB*        SUNNY     83  45  26 W16G25    29.90F HX  81
JACKSONVILLE*  SUNNY     82  44  26 W12       29.90F HX  80
PITTSFIELD*    SUNNY     81  48  31 W12       29.93F HX  80
$$

ILZ028>032-037-038-041>044-048-051>054-059>061-070000-
CENTRAL ILLINOIS

CITY           SKY/WX    TMP DP  RH WIND       PRES   REMARKS
PONTIAC        SUNNY     84  45  24 W20       29.85S HX  82
BLOOMINGTON    SUNNY     81  47  30 W13       29.88F HX  80
DECATUR        MOSUNNY   79  45  29 W13G20    29.89F
PEORIA         SUNNY     82  44  26 W13       29.86F HX  80
LACON*         SUNNY     83  45  26 W8G16     29.83F HX  81
LINCOLN*       SUNNY     82  47  29 W8        29.88F HX  80
SPRINGFIELD    SUNNY     84  44  24 W10       29.89F HX  82
TAYLORVILLE    SUNNY     79  45  29 W9        29.91F
$$

ILZ033-039-045-046-055>057-062-063-070000-
EAST-CENTRAL ILLINOIS

CITY           SKY/WX    TMP DP  RH WIND       PRES   REMARKS
CHAMPAIGN      SUNNY     79  43  27 W15       29.88F
RANTOUL*       SUNNY     81  45  28 W14       29.87F HX  80
MATTOON        MOSUNNY   73  44  35 SW9       29.91F
PARIS*         SUNNY     73  48  41 SW6       29.91F
$$

ILZ079-100>102-070000-
SOUTHWEST ILLINOIS

CITY           SKY/WX    TMP DP  RH WIND       PRES   REMARKS
ALTON          SUNNY     77  46  33 W9        29.94F
BELLEVILLE     SUNNY     78  45  30 W7        29.93F
CAHOKIA*       SUNNY     79  41  25 W9        29.94F
SPARTA*        SUNNY     75  46  35 W3        29.97F
$$

ILZ064>066-069>071-074>076-080>082-084>086-088>090-092>094-070000-
SOUTH-CENTRAL ILLINOIS

CITY           SKY/WX    TMP DP  RH WIND       PRES   REMARKS
CARBONDALE     PTSUNNY   73  44  35 W5        29.97F
CAIRO*         SUNNY     74  43  32 NW5       29.99S
EFFINGHAM*     SUNNY     74  49  41 SW7       29.95F
MT. VERNON     PTSUNNY   73  46  38 W5        29.97F
CENTRALIA*     SUNNY     74  49  40 W8        29.95F
SALEM*         SUNNY     75  46  36 W9        29.95F
METROPOLIS*    SUNNY     74  49  42 W7        29.98F
$$

ILZ067-068-072-073-078-083-087-091-070000-
SOUTHEAST ILLINOIS

CITY           SKY/WX    TMP DP  RH WIND       PRES   REMARKS
LAWRENCEVILLE  MOSUNNY   72  45  37 W10       29.94F
FLORA*         MOSUNNY   73  46  37 W9        29.95F
FAIRFIELD*     MOSUNNY   72  47  40 W5        29.95R
HARRISBURG*    SUNNY     73  48  40 W10       29.97F
ROBINSON*      MOSUNNY   70  47  44 W10       29.94F
CARMI*         MOSUNNY   72  48  43 W9        29.95F
$$

ABBREVIATIONS USED IN REMARKS
   TC - TEMPERATURE IN CELSIUS
  WCI - WIND CHILL INDEX
   HX - HEAT INDEX
  VSB - VISIBILITY
$$





USA.gov is the U.S. government's official web portal to all federal, state and local government web resources and services.